Location: Azenweiler
(47.8027°N, 9.4096°E)
Time: 03:21:54
(UTC+00:00)

Cosmos 1626 Rocket - Pass Details

Date: 14 March 2026
Orbit: 596 x 624 km, 82.5° (Epoch: 13 April)

Event Time Altitude Azimuth Distance (km) Brightness Sun altitude
Rises 04:30:53 0° 347° (NNW) 2,903 7.0 -12.0°
Reaches altitude 10° 04:33:09 10° 344° (NNW) 1,988 6.1 -11.7°
Maximum altitude 04:37:29 60° 265° (W) 701 3.5 -10.9°
Drops below altitude 10° 04:41:45 10° 185° (S) 1,953 6.0 -10.2°
Sets 04:43:57 0° 182° (S) 2,848 6.9 -9.9°
